TimeEST,TemperatureF,Dew PointF,Humidity,Sea Level PressureIn,VisibilityMPH,Wind Direction,Wind SpeedMPH,Gust SpeedMPH,PrecipitationIn,Events,Conditions,WindDirDegrees,DateUTC
12:15 AM,33.8,-9999,N/A,29.89,5.0,Calm,Calm,-,N/A,,Haze,0,2014-01-18 05:15:00
12:35 AM,32.0,-9999,N/A,29.89,4.0,Calm,Calm,-,N/A,,Haze,0,2014-01-18 05:35:00
12:55 AM,33.8,-9999,N/A,29.88,5.0,Calm,Calm,-,N/A,,Haze,0,2014-01-18 05:55:00
1:15 AM,33.8,-9999,N/A,29.88,5.0,Calm,Calm,-,N/A,,Haze,0,2014-01-18 06:15:00
1:35 AM,33.8,-9999,N/A,29.87,6.0,Calm,Calm,-,N/A,,Haze,0,2014-01-18 06:35:00
1:55 AM,33.8,-9999,N/A,29.88,5.0,Calm,Calm,-,N/A,,Haze,0,2014-01-18 06:55:00
2:15 AM,33.8,-9999,N/A,29.87,5.0,Calm,Calm,-,N/A,,Haze,0,2014-01-18 07:15:00
2:35 AM,33.8,-9999,N/A,29.87,5.0,SE,4.6,-,N/A,,Haze,140,2014-01-18 07:35:00
2:55 AM,33.8,-9999,N/A,29.86,5.0,Calm,Calm,-,N/A,,Haze,0,2014-01-18 07:55:00
3:15 AM,33.8,-9999,N/A,29.85,6.0,Calm,Calm,-,N/A,,Haze,0,2014-01-18 08:15:00
3:35 AM,33.8,-9999,N/A,29.84,5.0,Calm,Calm,-,N/A,,Haze,0,2014-01-18 08:35:00
3:55 AM,33.8,-9999,N/A,29.83,5.0,Calm,Calm,-,N/A,,Haze,0,2014-01-18 08:55:00
4:15 AM,33.8,-9999,N/A,29.82,6.0,NNW,3.5,-,N/A,,Haze,330,2014-01-18 09:15:00
4:35 AM,35.6,-9999,N/A,29.80,7.0,Calm,Calm,-,N/A,,Overcast,0,2014-01-18 09:35:00
4:55 AM,35.6,-9999,N/A,29.80,7.0,North,3.5,-,N/A,,Overcast,360,2014-01-18 09:55:00
5:15 AM,35.6,-9999,N/A,29.79,7.0,North,3.5,-,N/A,,Overcast,360,2014-01-18 10:15:00
5:35 AM,33.8,-9999,N/A,29.79,8.0,North,3.5,-,N/A,,Overcast,350,2014-01-18 10:35:00
5:55 AM,33.8,-9999,N/A,29.78,8.0,North,3.5,-,N/A,,Overcast,10,2014-01-18 10:55:00
6:15 AM,33.8,-9999,N/A,29.77,8.0,North,4.6,-,N/A,,Overcast,360,2014-01-18 11:15:00
6:35 AM,33.8,-9999,N/A,29.77,9.0,NE,3.5,-,N/A,,Overcast,40,2014-01-18 11:35:00
6:55 AM,33.8,-9999,N/A,29.74,7.0,North,4.6,-,N/A,,Scattered Clouds,10,2014-01-18 11:55:00
7:15 AM,33.8,-9999,N/A,29.74,7.0,North,4.6,-,N/A,,Mostly Cloudy,10,2014-01-18 12:15:00
7:35 AM,33.8,-9999,N/A,29.75,7.0,North,3.5,-,N/A,,Overcast,10,2014-01-18 12:35:00
7:55 AM,33.8,-9999,N/A,29.74,5.0,North,3.5,-,N/A,,Haze,10,2014-01-18 12:55:00
8:15 AM,33.8,-9999,N/A,29.74,6.0,North,5.8,-,N/A,,Haze,360,2014-01-18 13:15:00
8:35 AM,35.6,-9999,N/A,29.74,6.0,NNE,4.6,-,N/A,,Haze,30,2014-01-18 13:35:00
8:55 AM,35.6,-9999,N/A,29.73,7.0,NE,4.6,-,N/A,,Overcast,40,2014-01-18 13:55:00
9:15 AM,35.6,-9999,N/A,29.73,9.0,NNE,4.6,-,N/A,,Overcast,20,2014-01-18 14:15:00
9:35 AM,37.4,-9999,N/A,29.72,9.0,NE,4.6,-,N/A,,Overcast,40,2014-01-18 14:35:00
9:55 AM,37.4,-9999,N/A,29.71,9.0,NE,4.6,-,N/A,,Overcast,40,2014-01-18 14:55:00
10:15 AM,37.4,-9999,N/A,29.70,10.0,NE,5.8,-,N/A,,Mostly Cloudy,50,2014-01-18 15:15:00
10:35 AM,37.4,-9999,N/A,29.69,9.0,ENE,5.8,-,N/A,Rain,Light Rain,60,2014-01-18 15:35:00
10:55 AM,37.4,-9999,N/A,29.67,10.0,East,10.4,-,N/A,,Mostly Cloudy,80,2014-01-18 15:55:00
11:15 AM,37.4,-9999,N/A,29.65,9.0,ENE,6.9,-,N/A,Rain,Light Rain,70,2014-01-18 16:15:00
11:35 AM,39.2,-9999,N/A,29.64,10.0,NE,4.6,-,N/A,,Mostly Cloudy,50,2014-01-18 16:35:00
11:55 AM,39.2,-9999,N/A,29.63,10.0,ENE,5.8,-,N/A,,Overcast,60,2014-01-18 16:55:00
12:15 PM,39.2,-9999,N/A,29.62,10.0,NE,4.6,-,N/A,,Overcast,50,2014-01-18 17:15:00
12:35 PM,39.2,-9999,N/A,29.61,3.0,North,5.8,-,0.01,Rain,Light Rain,10,2014-01-18 17:35:00
12:55 PM,39.2,-9999,N/A,29.61,7.0,NNW,4.6,-,0.02,,Overcast,340,2014-01-18 17:55:00
1:15 PM,39.2,-9999,N/A,29.61,6.0,NNW,4.6,-,N/A,,Haze,330,2014-01-18 18:15:00
1:35 PM,39.2,-9999,N/A,29.60,7.0,North,4.6,-,N/A,,Overcast,350,2014-01-18 18:35:00
1:55 PM,39.2,-9999,N/A,29.59,7.0,North,3.5,-,N/A,,Overcast,10,2014-01-18 18:55:00
2:15 PM,39.2,-9999,N/A,29.59,7.0,NNW,4.6,-,N/A,,Overcast,330,2014-01-18 19:15:00
2:35 PM,37.4,-9999,N/A,29.61,5.0,NW,9.2,-,N/A,,Haze,310,2014-01-18 19:35:00
2:55 PM,35.6,-9999,N/A,29.62,3.0,NW,10.4,17.3,N/A,Rain,Light Rain,310,2014-01-18 19:55:00
3:15 PM,35.6,-9999,N/A,29.62,4.0,NW,6.9,-,N/A,,Haze,310,2014-01-18 20:15:00
3:35 PM,35.6,-9999,N/A,29.63,6.0,NW,9.2,-,N/A,,Haze,320,2014-01-18 20:35:00
3:55 PM,35.6,-9999,N/A,29.63,10.0,NNW,8.1,16.1,N/A,,Overcast,330,2014-01-18 20:55:00
4:15 PM,35.6,-9999,N/A,29.63,10.0,NW,8.1,-,N/A,,Mostly Cloudy,310,2014-01-18 21:15:00
4:35 PM,35.6,-9999,N/A,29.64,10.0,NW,6.9,-,N/A,,Overcast,320,2014-01-18 21:35:00
4:55 PM,35.6,-9999,N/A,29.65,10.0,West,4.6,-,N/A,,Overcast,280,2014-01-18 21:55:00
5:15 PM,35.6,-9999,N/A,29.67,10.0,West,4.6,-,N/A,,Overcast,280,2014-01-18 22:15:00
5:35 PM,35.6,-9999,N/A,29.67,10.0,West,5.8,-,N/A,,Overcast,270,2014-01-18 22:35:00
5:55 PM,35.6,-9999,N/A,29.68,10.0,West,6.9,-,N/A,,Overcast,280,2014-01-18 22:55:00
6:15 PM,35.6,-9999,N/A,29.68,10.0,WNW,6.9,17.3,N/A,,Overcast,290,2014-01-18 23:15:00
6:35 PM,35.6,-9999,N/A,29.68,10.0,WNW,9.2,17.3,N/A,,Overcast,290,2014-01-18 23:35:00
6:55 PM,35.6,-9999,N/A,29.69,10.0,WNW,8.1,18.4,N/A,,Overcast,300,2014-01-18 23:55:00
7:15 PM,35.6,-9999,N/A,29.69,10.0,WNW,8.1,17.3,N/A,,Overcast,300,2014-01-19 00:15:00
7:35 PM,33.8,-9999,N/A,29.69,10.0,NW,9.2,16.1,N/A,,Overcast,310,2014-01-19 00:35:00
7:55 PM,33.8,-9999,N/A,29.70,10.0,NW,10.4,18.4,N/A,,Overcast,310,2014-01-19 00:55:00
8:15 PM,33.8,-9999,N/A,29.71,10.0,NW,10.4,16.1,N/A,,Overcast,310,2014-01-19 01:15:00
8:35 PM,33.8,-9999,N/A,29.72,10.0,NW,6.9,20.7,N/A,,Overcast,320,2014-01-19 01:35:00
8:55 PM,33.8,-9999,N/A,29.73,10.0,WNW,4.6,-,N/A,,Overcast,300,2014-01-19 01:55:00
9:15 PM,32.0,-9999,N/A,29.72,10.0,WNW,8.1,-,N/A,,Overcast,290,2014-01-19 02:15:00
9:35 PM,32.0,-9999,N/A,29.73,10.0,WNW,5.8,-,N/A,,Overcast,290,2014-01-19 02:35:00
9:55 PM,32.0,-9999,N/A,29.74,10.0,WNW,6.9,-,N/A,,Overcast,300,2014-01-19 02:55:00
10:15 PM,32.0,-9999,N/A,29.75,10.0,WNW,4.6,-,N/A,,Overcast,300,2014-01-19 03:15:00
10:35 PM,32.0,-9999,N/A,29.74,10.0,NW,6.9,-,N/A,,Mostly Cloudy,320,2014-01-19 03:35:00
10:55 PM,32.0,-9999,N/A,29.74,10.0,WNW,4.6,-,N/A,,Mostly Cloudy,290,2014-01-19 03:55:00
11:15 PM,32.0,-9999,N/A,29.74,10.0,WNW,3.5,-,N/A,,Overcast,300,2014-01-19 04:15:00
11:35 PM,32.0,-9999,N/A,29.74,10.0,WNW,6.9,-,N/A,,Overcast,300,2014-01-19 04:35:00
11:55 PM,32.0,-9999,N/A,29.75,10.0,WNW,5.8,-,N/A,,Overcast,300,2014-01-19 04:55:00